McComb, MS

3:49 AM CDT on June 26, 2017 (GMT -0500)
McComb-Pike County-Lewis

Weather History for KMCB - September, 2014

Change the Weather History Date:

Wednesday, September 17, 2014

  Actual Average Record
Temperature  
Mean Temperature 79 °F -  
Max Temperature 88 °F 86 °F 94 °F (1953)
Min Temperature 71 °F 65 °F 51 °F (1961)
Cooling Degree Days 14    
Growing Degree Days 29 (Base 50)    
Moisture  
Dew Point 71 °F    
Average Humidity 87    
Maximum Humidity 100    
Minimum Humidity 55    
Precipitation  
Precipitation 0.00 in - - ()
Sea Level Pressure  
Sea Level Pressure 29.97 in    
Wind  
Wind Speed 1 mph (North)    
Max Wind Speed 7 mph    
Max Gust Speed -    
Visibility 6 miles    
Events Fog    
Averages and records for this station are not official NWS values.
T = Trace of Precipitation, MM = Missing Value Source: NWS Daily Summary

Daily Weather History Graph

Daily Weather History Graph

Search for Another Location

Airport or City:

Trip Planner

Search our weather history database for the weather conditions in past years. The results will help you decide how hot, cold, wet, or windy it might be!

Date:

Astronomy

Sep. 17, 2014 Rise Set
Actual Time 6:47 AM CDT 7:04 PM CDT
Civil Twilight 6:23 AM CDT 7:29 PM CDT
Nautical Twilight 5:54 AM CDT 7:57 PM CDT
Astronomical Twilight 5:25 AM CDT 8:26 PM CDT
Moon 1:03 AM CDT (9/17) 2:59 PM CDT (9/17)
Length of Visible Light 13h 06m
Length of Day
12h 17m
Waning Crescent, 34% of the Moon is Illuminated
Sep 17
Waning Crescent
Sep 24
New
Oct 1
First Quarter
Oct 8
Full
Oct 15
Last Quarter

Hourly Weather History & Observations

Time (CDT) Temp. Heat Index Dew Point Humidity Pressure Visibility Wind Dir Wind Speed Gust Speed Precip Events Conditions
12:02 AM 72.0 °F - 70.0 °F 93% 30.03 in 10.0 mi East 4.6 mph - N/A   Partly Cloudy
12:11 AM 72.0 °F - 70.0 °F 93% 30.03 in 7.0 mi Calm Calm - N/A   Mostly Cloudy
12:24 AM 72.0 °F - 71.1 °F 97% 30.03 in 1.8 mi Calm Calm - N/A   Mostly Cloudy
12:48 AM 71.6 °F - 71.6 °F 100% 30.02 in 0.8 mi Calm Calm - N/A   Mist
12:53 AM 73.0 °F - 71.1 °F 93% 30.00 in 0.8 mi Calm Calm - N/A   Mist
1:16 AM 73.0 °F - 71.1 °F 93% 30.01 in 1.2 mi Calm Calm - N/A   Overcast
1:26 AM 73.0 °F - 71.1 °F 93% 30.00 in 3.0 mi Calm Calm - N/A   Overcast
1:35 AM 73.0 °F - 71.1 °F 93% 30.00 in 1.8 mi Calm Calm - N/A   Overcast
1:51 AM 71.6 °F - 71.6 °F 100% 30.00 in 0.5 mi Calm Calm - N/A Fog Fog
1:53 AM 72.0 °F - 71.1 °F 97% 29.98 in 0.5 mi Calm Calm - N/A Fog Fog
2:19 AM 72.0 °F - 71.1 °F 97% 29.99 in 2.0 mi Calm Calm - N/A   Mostly Cloudy
2:35 AM 72.0 °F - 71.1 °F 97% 29.98 in 1.2 mi Calm Calm - N/A   Mostly Cloudy
2:40 AM 72.0 °F - 71.1 °F 97% 29.98 in 2.0 mi NNW 3.5 mph - N/A   Scattered Clouds
2:48 AM 71.6 °F - 71.6 °F 100% 29.98 in 4.0 mi Calm Calm - N/A   Partly Cloudy
2:53 AM 72.0 °F - 71.1 °F 97% 29.96 in 5.0 mi Calm Calm - N/A   Partly Cloudy
3:53 AM 71.1 °F - 70.0 °F 96% 29.95 in 5.0 mi NW 3.5 mph - N/A   Clear
4:53 AM 72.0 °F - 70.0 °F 93% 29.96 in 7.0 mi Calm Calm - N/A   Clear
5:53 AM 71.1 °F - 69.1 °F 93% 29.96 in 3.0 mi Calm Calm - N/A   Clear
6:20 AM 71.1 °F - 69.1 °F 93% 29.98 in 4.0 mi Calm Calm - N/A   Scattered Clouds
6:53 AM 71.1 °F - 69.1 °F 93% 29.96 in 5.0 mi Calm Calm - N/A   Partly Cloudy
7:42 AM 72.0 °F - 70.0 °F 93% 29.98 in 5.0 mi North 5.8 mph - N/A   Mostly Cloudy
7:53 AM 72.0 °F - 70.0 °F 93% 29.97 in 4.0 mi North 5.8 mph - N/A   Overcast
8:06 AM 72.0 °F - 70.0 °F 93% 29.98 in 2.5 mi North 6.9 mph - N/A   Overcast
8:14 AM 73.0 °F - 70.0 °F 90% 29.99 in 4.0 mi North 4.6 mph - N/A   Overcast
8:33 AM 73.9 °F - 71.1 °F 91% 29.99 in 7.0 mi Calm Calm - N/A   Scattered Clouds
8:53 AM 73.9 °F - 70.0 °F 87% 29.98 in 10.0 mi NNE 4.6 mph - N/A   Clear
9:53 AM 77.0 °F - 71.1 °F 82% 29.99 in 10.0 mi SE 3.5 mph - N/A   Clear
10:53 AM 81.0 °F 85.2 °F 72.0 °F 74% 29.98 in 10.0 mi Calm Calm - N/A   Clear
11:53 AM 82.9 °F 87.5 °F 71.1 °F 67% 29.98 in 10.0 mi East 3.5 mph - N/A   Scattered Clouds
12:14 PM 82.9 °F 87.5 °F 71.1 °F 67% 29.99 in 10.0 mi Calm Calm - N/A   Mostly Cloudy
1:53 PM 86.0 °F 90.1 °F 69.1 °F 57% 29.94 in 10.0 mi Calm Calm - N/A   Mostly Cloudy
2:53 PM 84.9 °F 88.8 °F 69.1 °F 59% 29.91 in 10.0 mi Calm Calm - N/A   Mostly Cloudy
3:53 PM 86.0 °F 90.1 °F 69.1 °F 57% 29.90 in 10.0 mi Calm Calm - N/A   Scattered Clouds
4:53 PM 87.1 °F 91.3 °F 69.1 °F 55% 29.89 in 10.0 mi WSW 5.8 mph - N/A   Mostly Cloudy
5:53 PM 86.0 °F 90.1 °F 69.1 °F 57% 29.89 in 10.0 mi SW 3.5 mph - N/A   Mostly Cloudy
6:53 PM 82.0 °F 87.4 °F 73.0 °F 74% 29.90 in 10.0 mi Calm Calm - N/A   Clear
7:53 PM 79.0 °F - 73.0 °F 82% 29.91 in 10.0 mi Calm Calm - N/A   Clear
8:53 PM 77.0 °F - 73.0 °F 88% 29.92 in 10.0 mi Calm Calm - N/A   Clear
9:53 PM 75.9 °F - 73.0 °F 91% 29.93 in 9.0 mi Calm Calm - N/A   Clear
10:53 PM 75.9 °F - 73.0 °F 91% 29.92 in 7.0 mi Calm Calm - N/A   Clear
11:53 PM 73.9 °F - 72.0 °F 93% 29.92 in 7.0 mi Calm Calm - N/A   Clear